Weather History for Mt. Pocono, PA

Change the Weather History Date:

Tuesday, February 19, 2013

  Actual Average Record
Temperature  
Mean Temperature 29 °F 27 °F  
Max Temperature 34 °F 35 °F 58 °F (1981)
Min Temperature 24 °F 19 °F -10 °F (1903)
Degree Days  
Heating Degree Days 36 38  
Month to date heating degree days 794 757  
Since 1 July heating degree days 4494 4788  
Cooling Degree Days 0 0  
Month to date cooling degree days 0 0  
Year to date cooling degree days 0 0  
Moisture  
Dew Point 24 °F    
Average Humidity 69    
Maximum Humidity 96    
Minimum Humidity 42    
Precipitation  
Precipitation 0.15 in 0.09 in 1.38 in (1946)
Month to date precipitation 0.56 1.56  
Year to date precipitation 2.61 4.41  
Sea Level Pressure  
Sea Level Pressure 29.80 in    
Wind  
Wind Speed 11 mph (SSW)    
Max Wind Speed 30 mph    
Max Gust Speed 39 mph    
Visibility 5 miles    
Events Fog , Snow    
T = Trace of Precipitation, MM = Missing Value Source: NWS Daily Summary

Daily Weather History Graph

Daily Weather History Graph

Search for Another Location

Airport:

Trip Planner

Search our weather history database for the weather conditions in past years. The results will help you decide how hot, cold, wet, or windy it might be!

Date:

Astronomy

Feb. 19, 2013 Rise Set
Actual Time 6:50 AM EST 5:40 PM EST
Civil Twilight 6:22 AM EST 6:08 PM EST
Nautical Twilight 5:50 AM EST 6:41 PM EST
Astronomical Twilight 5:18 AM EST 7:13 PM EST
Moon 12:08 PM EST (2/19) 2:21 AM EST (2/19)
Length of Visible Light 11h 46m
Length of Day
10h 50m
Waxing Gibbous, 67% of the Moon is Illuminated
Feb 19
Waxing Gibbous
Feb 25
Full
Mar 4
Last Quarter
Mar 11
New
Mar 19
First Quarter

Hourly Weather History & Observations

Time (EST) Temp. Windchill Dew Point Humidity Pressure Visibility Wind Dir Wind Speed Gust Speed Precip Events Conditions
12:53 AM 28.9 °F 19.8 °F 8.1 °F 41% 30.12 in 10.0 mi WSW 10.4 mph - N/A   Clear
1:53 AM 28.9 °F 21.9 °F 9.0 °F 43% 30.11 in 10.0 mi WSW 6.9 mph - N/A   Clear
2:53 AM 27.0 °F 23.0 °F 10.0 °F 49% 30.08 in 10.0 mi SW 3.5 mph - N/A   Clear
3:53 AM 26.1 °F - 10.0 °F 51% 30.06 in 10.0 mi Calm Calm - N/A   Clear
4:53 AM 25.0 °F 19.3 °F 10.0 °F 53% 30.03 in 10.0 mi South 4.6 mph - N/A   Clear
5:53 AM 24.1 °F 16.0 °F 12.0 °F 60% 30.01 in 10.0 mi South 6.9 mph - N/A   Clear
6:53 AM 26.1 °F 21.9 °F 15.1 °F 63% 30.00 in 10.0 mi Variable 3.5 mph - N/A   Clear
7:53 AM 30.0 °F 21.1 °F 18.0 °F 61% 29.97 in 10.0 mi South 10.4 mph 16.1 mph N/A   Clear
8:53 AM 30.0 °F 21.1 °F 19.0 °F 64% 29.94 in 10.0 mi SSE 10.4 mph 16.1 mph N/A   Clear
9:53 AM 30.0 °F 20.5 °F 19.0 °F 64% 29.90 in 10.0 mi SE 11.5 mph - N/A   Clear
10:53 AM 32.0 °F 23.0 °F 21.0 °F 64% 29.90 in 10.0 mi South 11.5 mph 20.7 mph N/A   Overcast
11:12 AM 32.0 °F 23.0 °F 21.2 °F 64% 29.83 in 2.5 mi South 11.5 mph 24.2 mph 0.00 in Snow Light Snow
11:22 AM 30.2 °F 21.9 °F 24.8 °F 80% 29.82 in 1.8 mi South 9.2 mph 18.4 mph 0.00 in Snow Light Snow
11:29 AM 30.2 °F 19.3 °F 24.8 °F 80% 29.83 in 3.0 mi South 15.0 mph 21.9 mph 0.00 in Snow Light Snow
11:37 AM 30.2 °F 21.9 °F 24.8 °F 80% 29.82 in 1.8 mi South 9.2 mph 21.9 mph 0.00 in Snow Light Snow
11:43 AM 30.2 °F 22.6 °F 24.8 °F 80% 29.82 in 0.8 mi South 8.1 mph 20.7 mph 0.00 in Snow Light Snow
11:49 AM 30.2 °F 23.4 °F 26.6 °F 86% 29.81 in 0.8 mi South 6.9 mph 17.3 mph 0.00 in Snow Light Snow
11:53 AM 30.0 °F 22.4 °F 26.1 °F 85% 29.88 in 0.8 mi South 8.1 mph - 0.00 in Snow Light Snow
11:57 AM 30.2 °F 21.9 °F 26.6 °F 86% 29.81 in 1.0 mi South 9.2 mph - 0.00 in Snow Light Snow
12:10 PM 30.2 °F 20.8 °F 26.6 °F 86% 29.79 in 0.5 mi SSE 11.5 mph - 0.00 in Fog , Snow Snow
12:18 PM 30.2 °F 23.4 °F 26.6 °F 86% 29.79 in 0.2 mi South 6.9 mph 17.3 mph 0.00 in Fog , Snow Snow
12:36 PM 30.2 °F 20.8 °F 28.4 °F 93% 29.77 in 0.2 mi SSE 11.5 mph - 0.00 in Fog , Snow Snow
12:49 PM 30.2 °F 21.3 °F 28.4 °F 93% 29.76 in 0.5 mi South 10.4 mph - 0.00 in Fog , Snow Light Snow
1:10 PM 30.2 °F 21.9 °F 28.4 °F 93% 29.75 in 0.8 mi South 9.2 mph - 0.00 in Snow Light Snow
1:53 PM 32.0 °F 22.5 °F 28.9 °F 88% 29.78 in 1.0 mi South 12.7 mph 23.0 mph 0.00 in Snow Light Snow
2:22 PM 32.0 °F 22.1 °F 30.2 °F 93% 29.70 in 2.5 mi SSW 13.8 mph 18.4 mph 0.00 in Snow Light Snow
2:32 PM 32.0 °F 22.5 °F 30.2 °F 93% 29.70 in 1.0 mi SSW 12.7 mph - 0.00 in Snow Light Snow
2:53 PM 32.0 °F 24.2 °F 30.0 °F 92% 29.75 in 1.0 mi SSW 9.2 mph 16.1 mph 0.00 in Snow Light Snow
3:33 PM 32.0 °F 24.8 °F 30.2 °F 93% 29.67 in 0.5 mi SSW 8.1 mph 18.4 mph 0.01 in Fog , Snow Snow
3:53 PM 32.0 °F 25.6 °F 30.0 °F 92% 29.73 in 1.0 mi South 6.9 mph - 0.02 in Snow Light Snow
4:13 PM 33.8 °F 27.0 °F 30.2 °F 87% 29.65 in 3.0 mi South 8.1 mph - 0.00 in Snow Light Snow
4:27 PM 33.8 °F 26.4 °F 30.2 °F 87% 29.65 in 2.0 mi South 9.2 mph - 0.00 in Snow Light Snow
4:36 PM 33.8 °F 27.7 °F 30.2 °F 87% 29.64 in 1.8 mi SSW 6.9 mph - 0.01 in Snow Light Snow
4:44 PM 33.8 °F 27.0 °F 30.2 °F 87% 29.64 in 3.0 mi SSW 8.1 mph - 0.01 in Snow Light Snow
4:53 PM 33.1 °F 26.1 °F 30.9 °F 92% 29.70 in 4.0 mi SSW 8.1 mph - 0.01 in Snow Light Snow
5:31 PM 33.8 °F 25.8 °F 32.0 °F 93% 29.64 in 0.2 mi SSW 10.4 mph - 0.00 in Fog Fog
5:53 PM 33.1 °F 25.5 °F 32.0 °F 96% 29.70 in 0.2 mi SW 9.2 mph - 0.00 in Fog Fog
7:36 PM 33.8 °F 24.3 °F 30.2 °F 87% 29.64 in 10.0 mi West 13.8 mph 24.2 mph 0.00 in   Overcast
7:53 PM 33.1 °F 21.9 °F 30.9 °F 92% 29.70 in 10.0 mi West 18.4 mph 26.5 mph 0.00 in   Overcast
7:59 PM 33.8 °F 24.3 °F 30.2 °F 87% 29.64 in 10.0 mi West 13.8 mph 26.5 mph N/A   Overcast
8:53 PM 30.9 °F 18.4 °F 25.0 °F 79% 29.71 in 10.0 mi WNW 20.7 mph 28.8 mph N/A   Partly Cloudy
9:53 PM 28.9 °F 14.5 °F 21.9 °F 75% 29.71 in 10.0 mi WNW 25.3 mph 38.0 mph N/A   Mostly Cloudy
10:53 PM 27.0 °F 12.8 °F 18.0 °F 69% 29.71 in 10.0 mi West 21.9 mph 35.7 mph 0.00 in   Clear
11:53 PM 26.1 °F 13.1 °F 18.0 °F 71% 29.73 in 10.0 mi WNW 17.3 mph 26.5 mph N/A   Mostly Cloudy